Date,TemperatureHighF,TemperatureAvgF,TemperatureLowF,DewpointHighF,DewpointAvgF,DewpointLowF,HumidityHigh,HumidityAvg,HumidityLow,PressureMaxIn,PressureMinIn,WindSpeedMaxMPH,WindSpeedAvgMPH,GustSpeedMaxMPH,PrecipitationSumIn
2013-3-1,40,34,31,36,28,22,100,80,63,29.71,29.56,3,0,13,0.28
2013-3-2,41,33,30,29,24,18,84,70,56,29.70,29.65,3,0,14,0.05
2013-3-3,40,33,28,36,27,21,92,79,63,29.67,29.59,3,0,10,0.02
2013-3-4,37,30,26,28,22,17,86,70,63,29.79,29.63,6,1,18,0.00
2013-3-5,45,34,26,30,23,18,84,67,50,30.10,29.79,3,0,13,0.00
2013-3-6,38,34,31,32,27,22,88,77,61,30.19,30.08,12,1,21,0.06
2013-3-7,35,31,29,30,26,22,92,80,66,30.17,30.07,7,0,14,0.06
2013-3-8,40,33,29,29,22,7,92,66,29,30.22,30.03,2,0,9,0.14
2013-3-9,52,35,25,30,18,-6,96,57,13,30.38,30.21,2,0,9,0.00
2013-3-10,51,35,22,35,27,19,96,75,54,30.42,30.28,2,0,7,0.00
2013-3-11,49,39,33,38,31,22,95,73,49,30.31,30.14,5,0,13,0.00
2013-3-12,44,39,36,43,38,32,100,96,82,30.15,29.73,0,0,6,0.68
2013-3-13,48,37,29,40,27,14,100,68,42,29.80,29.73,5,0,14,0.00
2013-3-14,35,28,19,28,16,4,92,62,42,29.84,29.71,7,1,20,0.00
2013-3-15,40,26,16,29,11,1,92,55,29,29.86,29.62,6,0,15,0.00
2013-3-16,37,29,21,25,12,5,84,51,34,29.89,29.70,5,0,12,0.00
2013-3-17,35,24,16,18,6,-4,84,49,27,30.33,29.89,6,0,17,0.00
2013-3-18,39,25,8,20,2,-5,79,41,19,30.46,30.23,2,0,7,0.00
2013-3-19,32,29,25,31,26,18,100,89,63,30.23,29.71,5,0,15,0.01
2013-3-20,38,28,21,24,18,8,96,68,47,29.79,29.70,6,0,16,0.28
2013-3-21,44,27,13,21,12,3,95,57,28,29.80,29.60,5,0,12,0.09
2013-3-22,44,31,20,24,19,11,91,63,39,29.74,29.64,5,0,15,0.00
2013-3-23,42,31,22,22,17,12,84,57,38,29.79,29.66,7,1,18,0.00
2013-3-24,46,35,26,26,20,14,71,56,41,29.86,29.75,5,0,14,0.00
2013-3-25,44,34,24,31,24,19,91,69,48,29.81,29.57,5,0,12,0.00
2013-3-26,49,38,31,30,20,6,75,51,28,29.81,29.60,5,0,13,0.00
2013-3-27,51,37,27,31,23,16,88,59,34,29.92,29.78,6,1,15,0.00
2013-3-28,49,39,34,38,30,21,100,71,47,30.05,29.92,5,0,10,0.00
2013-3-29,53,40,33,34,28,22,88,64,39,30.08,30.02,3,0,13,0.00
2013-3-30,55,39,30,35,19,0,88,51,19,30.13,30.03,5,0,12,0.00
2013-3-31,55,40,25,35,21,11,88,53,20,30.14,29.81,7,1,18,0.12